EHI
71 72 68 66 68 70 70 66 62 62 61 56 47 40 36 32 27 25 22 16 11 10 10 12 13 12 12 11 10 8 4 2 3 2 0 0 0 1 3 2 1 0 0
71 72 71 69 70 71 69 65 63 64 62 56 48 40 35 30 26 26 24 17 13 11 10 11 10 8 9 10 9 7 4 2 2 3 1 0 0 0 1 1 1 1 2
72 73 74 73 72 71 68 65 66 66 63 57 48 37 31 27 25 26 26 21 17 14 12 12 10 7 6 7 7 5 3 2 3 4 3 1 0 0 0 0 1 3 3
73 75 76 75 73 71 68 66 66 66 63 57 47 36 29 26 25 27 28 24 20 18 17 18 16 12 7 6 5 4 4 4 5 6 5 2 0 0 0 0 2 3 3
75 77 77 75 72 70 67 64 63 64 62 56 45 37 32 30 29 31 30 25 21 20 20 21 21 16 11 7 5 4 4 4 4 4 4 2 0 0 0 0 1 2 2
77 77 77 74 72 69 66 61 60 62 59 53 45 40 37 35 36 36 30 22 19 18 17 18 18 15 11 8 5 4 3 3 2 1 1 0 0 0 0 0 0 1 1
72 73 74 72 70 69 66 62 59 58 54 50 48 45 41 38 38 36 27 18 14 15 15 16 15 12 8 7 5 5 4 3 1 0 0 0 0 0 0 0 0 0 0
67 68 70 70 69 70 69 65 61 56 51 50 51 48 42 37 36 32 23 15 12 12 15 16 13 9 6 5 5 4 4 3 1 0 0 0 0 0 0 0 0 0 0
63 65 67 67 67 69 69 66 63 57 51 51 48 44 39 36 33 29 21 15 12 10 12 14 11 7 5 6 6 5 3 2 1 0 0 0 0 0 0 0 0 0 0
55 59 63 64 65 66 65 64 63 58 52 48 43 38 37 35 30 25 20 19 15 11 11 11 8 6 6 7 7 5 2 1 0 0 0 0 0 0 0 0 0 0 0
47 52 58 61 62 63 62 60 58 55 50 44 38 36 35 32 27 22 20 20 18 15 13 12 9 6 6 6 5 3 1 0 0 0 0 0 0 0 0 0 0 0 0
45 50 56 58 58 60 61 57 53 49 43 38 34 33 31 27 23 20 19 18 16 15 13 11 8 5 4 4 4 2 0 0 0 0 0 0 0 0 0 0 0 0 0
51 56 61 61 59 60 61 56 50 43 37 31 28 27 26 23 20 18 18 16 15 14 12 9 6 4 3 3 3 2 1 0 0 0 0 0 0 0 0 0 0 0 0
57 63 69 70 66 64 62 56 48 41 36 30 24 22 23 22 19 17 16 16 15 14 11 7 4 3 2 2 4 4 2 1 0 0 0 0 0 0 0 0 0 0 0
57 64 72 76 74 69 63 56 49 44 41 35 26 23 24 23 20 18 17 15 13 12 10 6 3 2 1 1 4 5 3 1 1 1 0 0 0 0 0 0 0 0 0
54 62 71 77 77 71 63 57 53 50 47 39 29 26 27 25 20 19 18 15 13 12 11 7 4 2 1 1 2 4 3 3 2 2 1 0 0 0 0 0 0 0 0
49 56 66 73 74 70 62 57 54 53 47 36 29 30 31 27 21 18 18 19 18 17 14 10 5 3 2 1 0 1 2 3 3 3 2 1 0 0 1 1 0 0 0
42 49 59 65 67 66 62 57 54 51 43 33 30 33 35 31 25 21 22 24 23 20 15 10 6 5 3 1 0 0 1 2 3 3 3 2 1 1 1 1 0 0 0
40 44 51 58 62 64 63 58 54 49 41 32 29 32 35 34 31 29 29 30 27 22 16 10 8 6 4 2 1 0 0 1 2 3 3 2 1 1 1 1 0 0 0
40 42 47 54 60 64 62 57 53 49 42 33 29 31 35 38 39 38 36 34 30 24 17 12 10 9 6 3 1 0 0 1 1 2 2 1 1 0 0 0 0 0 0
38 41 46 53 59 62 60 53 50 50 45 38 33 34 39 42 43 43 40 33 28 25 20 16 13 11 8 4 1 0 0 1 2 2 2 1 0 0 0 0 0 0 0
35 39 45 52 56 57 55 51 50 52 51 45 41 42 46 44 42 44 41 33 27 25 23 20 14 11 8 4 1 0 0 1 1 1 1 0 0 0 0 0 0 0 0
37 38 42 46 49 51 52 51 52 55 54 49 48 51 52 48 44 42 38 32 28 24 22 19 13 10 8 5 2 0 0 0 0 0 0 0 0 0 0 0 0 0 0
38 38 39 41 42 45 48 50 51 54 53 49 50 51 51 48 45 40 34 29 24 22 20 18 14 11 9 6 3 1 0 0 0 0 0 0 0 0 0 0 0 0 0
34 35 36 35 35 40 44 46 49 53 53 49 46 43 42 42 39 33 26 21 17 14 15 16 13 9 7 4 3 1 0 0 0 0 0 0 0 0 0 0 0 0 0
31 33 33 29 30 37 42 43 47 53 53 50 44 37 35 36 32 26 20 15 10 7 7 9 7 4 3 2 1 1 0 0 0 0 0 0 0 0 0 0 0 0 0
Wind_Speed
16 16 16 15 14 13 12 11 11 10 8 7 7 6 5 4 4 5 6 5 4 3 2 3 3 1 2 2 3 2 2 1 1 1 2 1 1 2 2 2 3 3 3
15 16 16 15 15 14 13 12 11 12 10 7 6 5 6 4 4 4 5 5 4 4 4 3 3 2 3 2 2 2 1 1 2 1 1 1 1 1 2 2 3 3 3
18 17 16 15 16 15 15 13 12 12 11 10 6 6 5 4 4 5 4 5 5 4 3 3 3 3 3 3 2 2 2 1 0 1 1 1 1 1 0 1 2 3 2
18 18 17 16 16 16 14 13 12 12 11 11 9 10 8 6 7 5 5 5 5 5 3 3 3 2 2 3 3 2 1 1 1 1 1 1 2 1 1 0 1 3 3
18 18 18 16 16 16 15 13 13 12 11 10 10 9 7 6 6 6 7 6 4 4 4 4 3 2 2 2 2 2 1 0 0 0 1 1 1 2 2 2 2 1 2
17 17 17 15 14 15 15 14 14 12 12 11 10 8 8 8 9 8 8 6 4 4 5 5 3 3 2 2 2 2 2 1 1 1 0 0 1 1 1 2 3 2 2
17 17 16 17 15 15 15 15 15 13 13 12 10 9 8 8 9 9 8 7 6 5 5 5 4 3 3 3 2 2 2 2 1 1 1 1 1 1 1 1 1 2 2
15 17 18 16 15 16 15 15 15 14 13 12 10 9 8 7 6 7 7 6 5 5 6 5 5 4 4 4 3 2 3 2 1 0 1 1 1 1 1 0 0 1 1
15 16 17 16 16 16 15 16 15 14 13 12 10 9 9 7 7 7 6 5 5 7 7 6 5 5 4 3 3 2 2 3 2 2 1 1 0 1 1 1 1 0 0
14 17 17 16 15 15 14 15 15 14 13 12 11 10 9 8 8 7 7 6 6 6 7 6 6 5 4 4 3 3 3 3 2 1 1 1 1 0 0 1 1 1 0
12 13 14 16 16 15 15 14 14 14 12 12 11 11 10 9 9 7 7 6 7 7 7 6 6 6 5 4 4 3 4 4 2 2 2 1 2 2 2 1 1 1 1
9 12 14 15 15 16 15 14 14 14 13 12 11 11 10 10 10 9 8 8 7 7 7 6 6 6 6 5 4 5 5 4 4 3 2 2 2 0 2 2 1 1 1
9 11 12 14 14 15 14 14 14 14 14 13 12 11 11 10 10 9 9 8 8 7 7 7 6 6 6 6 5 4 4 4 4 3 3 3 2 2 1 2 2 1 1
9 10 10 12 12 13 13 13 14 13 13 13 13 12 11 11 10 9 9 9 8 8 7 7 6 6 6 6 5 5 4 4 3 3 3 3 3 3 2 2 2 2 2
9 9 10 10 12 12 12 12 13 12 12 12 12 11 11 10 10 9 9 9 9 9 7 7 6 6 6 7 7 5 6 5 4 3 3 2 3 2 1 1 1 2 2
9 9 10 11 12 12 12 12 12 12 12 12 12 11 11 11 10 10 10 9 8 8 8 8 7 8 8 9 10 5 4 5 5 5 4 4 5 5 5 3 2 1 2
7 8 9 9 9 11 11 12 12 11 12 12 11 11 11 11 11 12 10 10 9 7 7 7 7 7 6 9 10 8 3 4 4 4 4 6 6 8 6 6 7 7 8
5 7 8 9 9 10 10 10 12 12 12 12 12 12 12 12 11 10 10 10 8 7 7 7 7 7 8 11 11 9 5 4 4 5 5 5 3 5 4 5 5 6 6
3 5 7 8 9 10 10 11 12 12 13 12 12 12 12 12 12 11 10 9 8 8 8 8 7 7 8 12 12 10 5 5 5 6 6 6 5 5 5 4 4 4 4
2 3 5 7 8 8 9 11 12 13 13 13 12 12 11 11 11 11 10 8 8 8 8 8 8 8 8 12 13 12 5 6 6 5 5 6 5 6 6 4 4 5 4
1 2 4 5 7 8 9 11 12 12 12 12 11 11 11 10 10 9 8 8 8 8 8 8 7 7 8 12 15 14 6 5 5 5 5 5 9 9 9 7 5 5 4
1 1 2 4 5 7 9 10 10 10 10 10 11 11 10 11 11 10 9 9 9 9 8 7 7 6 7 9 13 15 13 8 4 3 2 3 9 11 10 8 7 7 5
1 1 1 3 5 6 8 9 8 7 9 10 10 10 10 9 9 10 10 9 8 8 8 8 7 6 6 7 12 15 15 12 5 2 1 0 4 6 7 10 10 7 5
1 1 1 3 4 6 7 7 7 7 8 9 9 9 9 9 8 8 9 9 9 9 8 8 7 6 5 6 7 8 8 9 7 5 4 4 5 6 7 6 6 6 6
2 1 0 1 2 4 5 6 7 7 8 8 8 9 9 9 7 6 5 7 5 7 7 6 6 6 6 6 9 8 7 7 7 6 4 4 4 5 5 5 5 5 5
2 2 1 1 2 3 3 5 6 7 7 7 7 7 8 7 7 7 6 3 3 5 6 4 4 3 4 6 10 12 11 10 9 7 5 6 5 5 5 5 4 4 4
Wind_Direction
171 164 166 165 162 157 160 164 165 163 160 158 163 160 163 165 148 140 139 145 148 150 147 124 143 147 113 114 128 123 148 177 140 124 125 162 174 168 144 165 153 161 156
168 166 167 167 165 162 164 167 167 164 166 163 161 159 156 158 143 135 143 149 146 155 155 126 154 133 127 133 124 122 166 196 168 163 149 159 157 240 176 164 171 159 156
170 169 169 169 169 168 169 173 170 166 168 160 155 149 142 149 141 146 152 152 152 150 128 140 140 148 156 139 158 166 185 196 170 148 120 137 157 189 99 170 145 132 132
170 170 173 172 173 171 171 170 167 166 167 163 164 163 167 168 160 156 150 153 155 150 143 132 123 132 124 141 192 163 156 162 233 183 155 144 128 153 143 156 128 143 152
171 170 174 174 173 171 171 170 167 167 168 171 167 170 168 160 151 145 145 152 153 151 146 135 130 131 125 128 108 101 78 134 228 218 171 161 169 198 161 164 165 163 166
169 167 169 169 172 171 169 169 168 169 170 172 168 173 165 157 151 151 154 160 157 161 154 149 146 149 133 125 128 122 135 83 40 6 8 147 173 195 163 162 175 178 177
167 164 166 169 171 172 170 167 169 170 172 174 170 172 163 158 155 156 164 164 162 166 163 152 150 144 134 141 133 123 117 126 103 16 338 0 6 25 71 134 172 155 161
165 164 166 170 173 172 169 167 170 170 172 174 169 166 163 162 162 163 164 169 167 156 150 148 155 153 162 157 148 152 153 131 122 143 26 338 355 360 3 46 121 185 189
162 162 164 169 173 172 171 169 168 169 173 173 165 166 166 167 161 158 162 163 152 150 152 160 162 163 158 148 155 150 141 141 179 197 195 263 270 290 336 0 358 336 248
161 163 166 169 172 170 167 166 166 170 172 170 170 171 172 167 156 163 169 160 153 145 152 163 164 162 157 162 165 158 151 160 165 161 99 341 308 4 353 349 339 339 311
164 161 162 166 167 164 164 165 165 168 172 174 174 169 172 168 163 168 165 156 149 150 159 166 166 166 169 177 182 175 167 178 181 185 161 162 356 358 330 311 302 332 5
157 157 159 159 162 163 164 166 168 170 174 173 173 171 170 168 170 172 167 160 158 162 164 168 169 176 176 177 184 195 180 180 183 188 172 187 198 217 333 339 342 358 24
149 156 159 160 162 163 166 168 170 173 174 174 175 173 172 171 173 171 167 165 166 168 169 173 177 185 175 176 192 197 187 186 185 179 184 197 182 215 230 294 310 303 279
146 154 156 156 159 162 166 168 171 172 173 173 176 175 175 174 175 170 167 168 169 172 173 175 181 185 182 184 191 190 194 190 188 186 193 194 192 202 213 243 256 287 298
151 154 155 156 159 162 165 169 171 172 172 174 178 177 175 173 173 169 169 169 174 179 176 177 183 187 191 195 189 190 193 190 196 198 206 191 164 146 163 272 307 293 290
158 158 159 161 163 166 170 171 173 172 171 177 180 176 175 175 175 173 172 172 178 181 177 183 187 194 204 188 177 186 201 185 195 201 204 196 187 181 185 204 231 265 271
158 163 167 167 168 170 171 175 175 171 174 180 180 176 176 177 178 179 176 177 181 183 181 186 190 196 191 168 167 177 205 208 208 206 207 233 220 191 195 210 227 237 237
166 168 172 172 175 175 172 174 174 174 178 182 181 178 179 181 179 180 179 178 180 185 185 191 196 193 187 176 174 177 203 232 229 219 216 225 234 218 203 213 222 229 231
181 176 178 177 175 178 175 175 177 179 183 185 184 182 184 183 181 184 182 179 182 187 190 194 198 198 186 183 181 179 200 223 235 234 228 221 218 211 202 224 249 255 258
165 183 184 178 173 173 173 178 183 185 189 189 188 186 184 183 184 184 181 180 182 189 194 200 200 200 188 185 186 186 205 218 224 227 230 225 220 200 198 214 244 260 268
135 181 180 172 170 171 175 186 189 193 190 187 187 187 184 184 183 181 180 179 186 192 199 201 197 196 191 183 189 191 207 223 224 223 215 207 190 195 202 210 228 245 268
111 148 154 164 168 173 180 189 194 190 185 184 185 185 181 188 187 180 182 185 190 194 198 199 199 199 193 184 192 196 208 226 245 247 234 201 183 192 200 209 229 236 253
114 163 183 172 174 179 184 191 191 184 182 182 182 181 182 189 180 180 185 188 191 199 199 199 206 206 194 182 183 195 208 218 225 249 284 176 194 200 211 227 230 231 236
41 112 177 191 178 179 188 189 183 181 182 183 180 178 180 185 179 179 186 192 195 200 201 199 201 197 192 186 180 189 203 213 223 235 230 215 213 229 241 236 229 225 234
20 32 131 192 181 173 180 182 179 179 181 181 179 179 181 180 176 172 181 193 193 198 199 199 193 194 193 191 177 178 189 198 204 206 216 222 218 225 228 226 222 221 225
19 11 36 170 177 171 169 173 172 174 178 182 182 182 182 177 175 172 171 142 159 162 168 154 151 156 157 158 167 172 178 185 185 192 218 225 227 229 230 232 233 231 233